Regional Weather Roundup
Issued by NWS

Home | Current Version | Previous Version | Graphics & Text | Print | Product List | Glossary On
Versions: 1 2 3 4 5 6 7 8 9 10 11 12 13 14 15 16 17 18 19 20 21 22 23 24 25 26 27 28 29 30 31 32 33 34 35 36 37 38 39 40 41 42 43 44 45 46 47 48 49 50
000
ASUS43 KLSX 242010
RWRMO

WEATHER SUMMARY FOR MISSOURI
NATIONAL WEATHER SERVICE SPRINGFIELD MO
300 PM CDT TUE APR 24 2018

NOTE: "FAIR" INDICATES FEW OR NO CLOUDS BELOW 12,000 FEET WITH NO
       SIGNIFICANT WEATHER AND/OR OBSTRUCTIONS TO VISIBILITY.
       CURRENT SKY AND/OR WEATHER CONDITIONS ARE NOT AVAILABLE FOR
       CHILLICOTHE AND FARMINGTON.

MOZ001>031-035>038-043-044-053-054-242100-
...NORTHERN AND WESTERN MISSOURI...

CITY           SKY/WX    TMP DP  RH WIND       PRES   REMARKS
KANSAS CTY INT PTSUNNY   76  33  21 NW12      30.07F
KANSAS C DTWN  MOSUNNY   77  35  21 N15       30.05F
LEE`S SUMMIT   SUNNY     74  33  22 N16       30.07F
ST JOSEPH      SUNNY     77  36  22 N7G22     30.08F
CHILLICOTHE      N/A     78  34  20 N10G22    30.05F
KIRKSVILLE     SUNNY     74  35  24 NW9G17    30.04F

$$
MOZ066>068-077>081-088>096-101>105-242100-
...SOUTHWEST MISSOURI...

CITY           SKY/WX    TMP DP  RH WIND       PRES   REMARKS
SPRINGFIELD    SUNNY     74  43  32 NW12      30.04F
JOPLIN         SUNNY     74  43  32 N7        30.06F
BRANSON        MOSUNNY   73  39  29 NW15G25   30.04F

$$
MOZ032>034-039>042-045>050-055>058-069>072-242100-
...CENTRAL MISSOURI...

CITY           SKY/WX    TMP DP  RH WIND       PRES   REMARKS
COLUMBIA       CLOUDY    73  46  38 N9        30.03F
JEFFERSON CITY CLOUDY    72  47  40 NE9G17    30.02F
ROLLA          CLOUDY    68  48  48 N13       30.04F
SEDALIA        MOSUNNY   75  44  33 N9        30.05F
WHITEMAN AFB   MOSUNNY   75  34  23 N12       30.01F
WARRENSBURG    SUNNY     75  34  22 NW9       30.05F
OSAGE BEACH    PTSUNNY   69  49  48 N10       30.04F

$$
MOZ051-052-059>065-242100-
...EAST CENTRAL MISSOURI...

CITY           SKY/WX    TMP DP  RH WIND       PRES   REMARKS
ST LOUIS INTL  MOSUNNY   67  53  61 N9        30.00F
SPIRIT OF STL  MOSUNNY   70  52  52 N9        30.00F
ST CHARLES     PTSUNNY   71  52  50 NE12G21   29.99F

$$
MOZ072>076-082>087-097>100-106>115-242100-
...SOUTH CENTRAL AND SOUTHEAST MISSOURI...

CITY           SKY/WX    TMP DP  RH WIND       PRES   REMARKS
CAPE GIRARDEAU CLOUDY    62  55  77 N9        29.98S
FARMINGTON     CLOUDY    64  53  67 N9        30.01F
POPLAR BLUFF   CLOUDY    63  57  81 N12       29.99S
WEST PLAINS    PTSUNNY   69  49  48 N12G21    30.03S

$$



USA.gov is the U.S. government's official web portal to all federal, state and local government web resources and services.